Weather History for Gwinn, MI

Change the Weather History Date:

Thursday, February 14, 2013

  Actual Average (KESC) Record (KESC)
Temperature  
Mean Temperature 22 °F -  
Max Temperature 28 °F 27 °F 42 °F (2011)
Min Temperature 15 °F 9 °F -11 °F (1970)
Degree Days  
Heating Degree Days 44    
Moisture  
Dew Point 21 °F    
Average Humidity 88    
Maximum Humidity 100    
Minimum Humidity 71    
Precipitation  
Precipitation 0.00 in - - ()
Sea Level Pressure  
Sea Level Pressure 29.69 in    
Wind  
Wind Speed 8 mph (North)    
Max Wind Speed 25 mph    
Max Gust Speed 32 mph    
Visibility 7 miles    
Events Snow    
Averages and records for this station are not official NWS values.
T = Trace of Precipitation, MM = Missing Value Source: NWS Daily Summary

Daily Weather History Graph

Daily Weather History Graph

Search for Another Location

Airport:

Trip Planner

Search our weather history database for the weather conditions in past years. The results will help you decide how hot, cold, wet, or windy it might be!

Date:

Astronomy

Feb. 14, 2013 Rise Set
Actual Time 7:53 AM EST 6:14 PM EST
Civil Twilight 7:23 AM EST 6:45 PM EST
Nautical Twilight 6:47 AM EST 7:20 PM EST
Astronomical Twilight 6:13 AM EST 7:55 PM EST
Moon 9:36 AM EST (2/14) 11:38 PM EST (2/14)
Length of Visible Light 11h 22m
Length of Day
10h 20m
Waxing Crescent, 21% of the Moon is Illuminated
Feb 14
Waxing Crescent
Feb 17
First Quarter
Feb 25
Full
Mar 4
Last Quarter
Mar 11
New

Hourly Weather History & Observations

Time (EST) Temp. Windchill Dew Point Humidity Pressure Visibility Wind Dir Wind Speed Gust Speed Precip Events Conditions
12:16 AM 26.2 °F 22.1 °F 24.8 °F 94% 29.59 in 7.0 mi North 3.5 mph - N/A   Overcast
12:37 AM 26.4 °F 19.8 °F 25.0 °F 94% 29.59 in 10.0 mi North 5.8 mph - N/A   Overcast
12:57 AM 26.1 °F 20.5 °F 24.4 °F 94% 29.59 in 10.0 mi NNE 4.6 mph - N/A   Overcast
1:17 AM 26.8 °F 21.4 °F 25.0 °F 93% 29.59 in 10.0 mi North 4.6 mph - N/A   Overcast
1:37 AM 26.6 °F - 24.8 °F 93% 29.60 in 10.0 mi Calm Calm - N/A   Overcast
1:56 AM 26.8 °F - 25.2 °F 94% 29.60 in 7.0 mi Calm Calm - N/A   Overcast
2:17 AM 26.6 °F - 24.8 °F 93% 29.60 in 10.0 mi Calm Calm - N/A   Overcast
2:37 AM 27.1 °F 19.7 °F 25.7 °F 94% 29.60 in 10.0 mi North 6.9 mph - N/A   Overcast
2:56 AM 27.9 °F 19.1 °F 26.4 °F 94% 29.60 in 10.0 mi North 9.2 mph - N/A   Overcast
3:17 AM 27.9 °F 19.1 °F 26.6 °F 95% 29.60 in 7.0 mi North 9.2 mph - N/A   Overcast
3:37 AM 27.5 °F 18.0 °F 26.4 °F 96% 29.60 in 7.0 mi North 10.4 mph - N/A   Overcast
3:57 AM 27.5 °F 21.1 °F 26.6 °F 96% 29.60 in 7.0 mi North 5.8 mph - N/A   Overcast
4:17 AM 27.3 °F 23.4 °F 26.1 °F 95% 29.60 in 7.0 mi North 3.5 mph - N/A   Overcast
4:37 AM 27.1 °F 21.8 °F 25.7 °F 94% 29.59 in 10.0 mi North 4.6 mph - N/A   Overcast
4:57 AM 26.6 °F 21.2 °F 25.2 °F 94% 29.59 in 10.0 mi North 4.6 mph - N/A   Overcast
5:16 AM 26.6 °F 21.2 °F 25.3 °F 95% 29.59 in 10.0 mi North 4.6 mph - N/A   Overcast
5:37 AM 26.1 °F 21.9 °F 24.6 °F 94% 29.60 in 7.0 mi North 3.5 mph - N/A   Overcast
5:57 AM 26.4 °F - 25.0 °F 94% 29.60 in 3.0 mi Calm Calm - N/A Snow Light Snow
6:50 AM 24.8 °F 17.9 °F 24.8 °F 100% 29.60 in 10.0 mi North 5.8 mph - N/A   Overcast
7:50 AM 26.6 °F 22.6 °F 24.8 °F 93% 29.62 in 10.0 mi North 3.5 mph - N/A Snow Light Snow
8:50 AM 26.6 °F 19.1 °F 24.8 °F 93% 29.63 in 6.0 mi North 6.9 mph - N/A Snow Light Snow
9:50 AM 28.4 °F 18.0 °F 24.8 °F 86% 29.63 in 4.0 mi North 12.7 mph - N/A Snow Light Snow
10:50 AM 28.4 °F 17.5 °F 24.8 °F 86% 29.64 in 3.0 mi North 13.8 mph - N/A Snow Light Snow
11:05 AM 28.4 °F 17.5 °F 26.6 °F 93% 29.64 in 1.5 mi North 13.8 mph - N/A Snow Light Snow
11:55 AM 28.4 °F 15.1 °F 26.6 °F 93% 29.64 in 0.8 mi North 20.7 mph - N/A Snow Light Snow
12:50 PM 26.6 °F 11.4 °F 24.8 °F 93% 29.65 in 1.0 mi North 25.3 mph 32.2 mph N/A Snow Light Snow
1:50 PM 24.8 °F 9.3 °F 23.0 °F 93% 29.67 in 1.2 mi North 24.2 mph 32.2 mph N/A Snow Light Snow
2:50 PM 23.0 °F 6.9 °F 19.4 °F 86% 29.70 in 5.0 mi North 24.2 mph 31.1 mph N/A Snow Light Snow
3:50 PM 21.2 °F 6.0 °F 17.6 °F 86% 29.73 in 4.0 mi North 19.6 mph 27.6 mph N/A Snow Light Snow
4:50 PM 21.2 °F 4.9 °F 15.8 °F 80% 29.76 in 3.0 mi North 23.0 mph 28.8 mph N/A Snow Light Snow
5:50 PM 19.4 °F 5.5 °F 14.0 °F 80% 29.80 in 5.0 mi North 15.0 mph - N/A Snow Light Snow
6:58 PM 19.4 °F 7.9 °F 12.2 °F 74% 29.84 in 7.0 mi NNW 10.4 mph 23.0 mph N/A Snow Light Snow
7:50 PM 17.6 °F 5.0 °F 10.4 °F 73% 29.85 in 7.0 mi NNW 11.5 mph 24.2 mph N/A Snow Light Snow
8:50 PM 15.8 °F 0.3 °F 10.4 °F 79% 29.87 in 7.0 mi NNW 16.1 mph 23.0 mph N/A Snow Light Snow
9:45 PM 17.6 °F 2.7 °F 10.4 °F 73% 29.87 in 10.0 mi NNW 16.1 mph 21.9 mph N/A   Overcast
10:17 PM 17.2 °F 5.2 °F 11.1 °F 77% 29.88 in 4.0 mi North 10.4 mph 17.3 mph N/A Snow Light Snow
10:36 PM 17.2 °F 5.2 °F 11.5 °F 78% 29.88 in 7.0 mi NNW 10.4 mph - N/A Snow Light Snow
10:57 PM 17.6 °F 3.7 °F 9.5 °F 71% 29.88 in 10.0 mi North 13.8 mph 20.7 mph N/A   Overcast
11:17 PM 17.6 °F 2.2 °F 10.6 °F 74% 29.88 in 3.0 mi North 17.3 mph 21.9 mph N/A Snow Light Snow
11:36 PM 17.2 °F 3.9 °F 10.8 °F 76% 29.88 in 10.0 mi North 12.7 mph 20.7 mph N/A   Overcast
11:57 PM 17.4 °F 4.7 °F 11.1 °F 76% 29.89 in 5.0 mi North 11.5 mph 20.7 mph N/A Snow Light Snow